Вернуться в каталог

CZ-6A DEB

АктивенPO
NORAD 54265·DEBRIS·🇨🇳 China

Запущен Nov 11, 2022 с Taiyuan Satellite Launch Center

Loading…

Ближайшие Пролёты (ближайшие 24 часа)

TLE

СвежийSource: Space-Track

Эпоха: Sep 14, 2026, 14:45 UTC

1 54265U 22151G   26257.61520654  .00000237  00000-0  33089-3 0  9992
2 54265  99.0368 134.4096 0379040 178.3207 181.9296 13.39865541187655

Отслеживайте CZ-6A DEB в реальном времени с AllMySat

Download on the App Store